Regional Weather Roundup
Issued by NWS State College, PA

Home | Current Version | Previous Version | Graphics & Text | Print | Product List | Glossary Off
Versions: 1 2 3 4 5 6 7 8 9 10 11 12 13 14 15 16 17 18 19 20 21 22 23 24 25 26 27 28 29 30 31 32 33 34 35 36 37 38 39 40 41 42 43 44 45 46 47 48 49 50

000
ASUS41 KCTP 221503
RWRCTP

REGIONAL WEATHER ROUNDUP
NATIONAL WEATHER SERVICE STATE COLLEGE PA
1100 AM EDT FRI MAY 22 2015

Note: "fair" indicates few or no clouds below 12,000 feet with no
significant weather and/or obstructions to visibility.

* = STATION THAT DOES NOT REPORT PRECIPITATION /E.G. RAIN...SNOW...ETC/
    THUNDER OR FOG.

PAZ002>004-007>009-013>016-020>023-029>032-221600-
WESTERN PENNSYLVANIA

CITY           SKY/WX    TMP DP  RH WIND       PRES   REMARKS
ERIE           SUNNY     53  32  44 W12G18    30.11R
MEADVILLE      MOSUNNY   55  35  47 NW13      30.09R
FRANKLIN*      PTSUNNY   55  43  62 W9        30.09S
NEW CASTLE     PTSUNNY   59  47  64 W8        30.12R
BEAVER COUNTY  MOSUNNY   59  43  55 W12G17    30.11R
BUTLER*        MOSUNNY   59  45  58 W7        30.11S
PITTSBURGH INT PTSUNNY   60  41  49 W9        30.11S
PITTSBURGH     PTSUNNY   60  39  45 SW10      30.11S
INDIANA*       PTSUNNY   57  46  67 SW14      30.13R
LATROBE        MOSUNNY   57  46  67 SW16      30.14S
WASHINGTON CO* SUNNY     59  45  58 SW8       30.16S
$$

PAZ004>006-010>012-017>019-024>028-033>037-041-042-045-046-049>053-221600-
CENTRAL PENNSYLVANIA

CITY           SKY/WX    TMP DP  RH WIND       PRES   REMARKS
BRADFORD       MOSUNNY   56  37  49 W14G22    30.03S
DUBOIS         PTSUNNY   54  46  74 W13       30.05S
CLEARFIELD     CLOUDY    52  42  69 S7        30.06F
JOHNSTOWN      SUNNY     55  39  54 W14       30.09S
ALTOONA        SUNNY     60  39  45 W13       30.08R
STATE COLLEGE  NOT AVBL
WILLIAMSPORT   MOSUNNY   62  44  51 W14G23    30.00S
SELINSGROVE    MOSUNNY   65  47  52 W9G21     30.03S
FT INDIANTOWN  SUNNY     64  41  43 W12G25    30.03R
CAPITAL CITY   SUNNY     67  40  37 NW12G22   30.04S
HARRISBURG     MOSUNNY   67  41  38 NW17G29   30.03S
YORK           SUNNY     66  41  40 NW15G24   30.05R
$$

PAZ038>040-043-044-047-048-054-055-060>062-067>071-221600-
EASTERN PENNSYLVANIA

CITY           SKY/WX    TMP DP  RH WIND       PRES   REMARKS
SCRANTON       MOSUNNY   61  42  49 SW10G16   29.97S
MOUNT POCONO   SUNNY     60  37  42 NW10G18   29.97R
ALLENTOWN      SUNNY     68  40  35 W15G22    29.98S
QUAKERTOWN*    SUNNY     66  41  39 NW10G18   30.00R
READING        SUNNY     68  39  34 W13G24    30.00S
LANCASTER      SUNNY     65  44  46 W15       30.03R
COATESVILLE    SUNNY     64  43  45 NW16G23   30.03R
POTTSTOWN      SUNNY     65  41  41 W10G21    30.01S
BLUE BELL      SUNNY     68  43  40 W7G17     29.98S
DOYLESTOWN     SUNNY     68  40  35 W13G21    29.97S
WILLOW GROVE   NOT AVBL
NORTH PHILA    SUNNY     69  41  36 W9G21     30.00S
PHILADELPHIA   SUNNY     68  41  37 W14G21    30.00S
$$


USA.gov is the U.S. government's official web portal to all federal, state and local government web resources and services.